Regional Weather Roundup
Issued by NWS Sterling, VA

Home | Current Version | Previous Version | Text Only | Print | Product List | Glossary Off
Versions: 1 2 3 4 5 6 7 8 9 10 11 12 13 14 15 16 17 18 19 20 21 22 23 24 25 26 27 28 29 30 31 32 33 34 35 36 37 38 39 40 41 42 43 44 45 46 47 48 49 50

000
ASUS41 KLWX 260310
RWRLWX

REGIONAL WEATHER ROUNDUP
NATIONAL WEATHER SERVICE BALTIMORE MD/WASHINGTON DC
1000 PM EST SUN JAN 25 2015

Note: "FAIR" indicates few or no clouds below 12,000 feet
with no significant weather and/or obstructions to visibility.
 TC=TEMPERATURE CELSIUS

 * =Non NWS site. Station does not report precipitation (e.g. rain,
    snow, etc.), thunder, or fog.

DCZ001-MDZ009-015-VAZ040>042-051-053>054-260400-
WASHINGTON METRO

CITY           SKY/WX    TMP DP  RH WIND       PRES   REMARKS
WASHINGTON NAT CLOUDY    47  31  53 SE5       29.86F
DULLES         CLOUDY    43  31  62 E6        29.83F
ANDREWS AFB    CLOUDY    43  32  65 SE8       29.84F
FT BELVOIR     CLOUDY    41  33  74 E2        29.85F
QUANTICO       CLOUDY    42  33  70 S5        29.86F
COLLEGE PARK*  CLOUDY    43  34  70 CALM      29.85F
LEESBURG*      CLOUDY    41  36  81 CALM      29.84F
MANASSAS*      CLOUDY    39  37  93 CALM      29.84F
GAITHERSBURG*  CLOUDY    39  30  70 E3        29.88F

$$

MDZ006>007-011-014-260400-
BALTIMORE METRO

CITY           SKY/WX    TMP DP  RH WIND       PRES   REMARKS
BWI AIRPORT    CLOUDY    42  32  67 E8        29.87S
MD SCIENCE CTR   N/A     44  32  62 MISG      29.88S
ANNAPOLIS      CLOUDY    39  34  82 SE3       29.88S
FORT MEADE*    CLOUDY    39  32  75 E3        29.89S

$$

MDZ012-015-019>023-260400-
MARYLAND EASTERN SHORE

CITY           SKY/WX    TMP DP  RH WIND       PRES   REMARKS
OCEAN CITY     CLOUDY    39  35  86 CALM      29.92R
SALISBURY      CLOUDY    41  32  70 S7        29.90S
BAY BRIDGE AP*   N/A     43  30  61 SE5       29.89R
CAMBRIDGE*     CLOUDY    43  32  65 S7        29.89R
EASTON*        CLOUDY    43  34  69 S5        29.92S

$$

MDZ017>025-260400-
SOUTHERN MARYLAND

CITY           SKY/WX    TMP DP  RH WIND       PRES   REMARKS
PATUXENT RIVER CLOUDY    43  31  62 SE6       29.88R
ST INIGOES     CLOUDY    43  32  65 SE8       29.87S
LEONARDTOWN*   CLOUDY    41  32  70 SE5       29.88S

$$

MDZ003>005-260400-
NORTH CENTRAL MARYLAND

CITY           SKY/WX    TMP DP  RH WIND       PRES   REMARKS
FREDERICK*     CLOUDY    37  34  87 N5        29.89S
HAGERSTOWN APT LGT RAIN  36  34  92 NE9       29.83F WCI  29
WESTMINSTER*   RAIN      36  34  93 NE7       29.86S

$$

MDZ501>502-260400-
WESTERN MARYLAND

CITY           SKY/WX    TMP DP  RH WIND       PRES   REMARKS
OAKLAND*       FOG       32 N/A N/A SE5       29.71F VSB 1/4
CUMBERLAND*    CLOUDY    37  36  93 N3        29.85F

$$

VAZ025>031-260400-
SHENANDOAH VALLEY

CITY           SKY/WX    TMP DP  RH WIND       PRES   REMARKS
WINCHESTER*    CLOUDY    39  32  75 CALM      29.81S
FRONT ROYAL*   CLOUDY    37  32  81 CALM      29.80S
LURAY*         FAIR      36  36 100 SE6       29.80S
NEW MARKET*    FAIR      32  31  96 CALM      29.79S
STAUNTON*      CLOUDY    35  31  87 CALM      29.79F
WAYNESBORO*    MOCLDY    38  31  74 SE3       29.77F

$$

WVZ021-048>050-054>055-260400-
EASTERN WEST VIRGINIA PANHANDLE

CITY           SKY/WX    TMP DP  RH WIND       PRES   REMARKS
MARTINSBURG    CLOUDY    38  35  89 N5        29.83S FOG
PETERSBURG*    CLOUDY    36  35  96 CALM      29.80S

$$

VAZ036>039-050-260400-
CENTRAL FOOTHILLS

CITY           SKY/WX    TMP DP  RH WIND       PRES   REMARKS
CHARLOTTESVILL MOCLDY    39  32  76 N5        29.80F
CULPEPER*      CLOUDY    37  36  93 CALM      29.83S
ORANGE*        CLOUDY    36  34  93 CALM      29.84S
GORDONSVILLE*  FAIR      33  31  94 CALM      29.81F
WARRENTON*     CLOUDY    40  37  87 CALM      29.82S

$$

VAZ055>057-260400-
NORTH AND CENTRAL PIEDMONT

CITY           SKY/WX    TMP DP  RH WIND       PRES   REMARKS
FREDERICKSBRG* CLOUDY    39  36  88 CALM      29.84S
STAFFORD*      CLOUDY    38  33  82 CALM      29.88F

$$

NCZ024-NYZ072-PAZ021-071-VAZ022-071-260400-
OTHER REGIONAL OBSERVATIONS

CITY           SKY/WX    TMP DP  RH WIND       PRES   REMARKS
NEW YORK CITY  CLOUDY    32  10  40 VRB3      29.99R
PHILADELPHIA   LGT RAIN  38  33  82 NE7       29.94R
PITTSBURGH     SNOW      30  29  96 NE6       29.78F VSB 1/2
ROANOKE        CLOUDY    43  30  60 E7        29.78F
RICHMOND       CLOUDY    42  35  76 SE8       29.85R
RALEIGH        CLOUDY    44  33  65 S6        29.83S

$$

ANZ530>537-260400-
MARINE OBSERVATIONS

STATION/POSITION TIME  TEMP    WIND        PRES
                       AIR SEA DIR/SP/G
                 (UTC) (F)     (DEG/KT/KT) (MB)
THOMAS PT LIGHT  0300   40 37  190/  2/  3 1013.2R
BALT KEY BRIDGE  0300   42      60/  6/  7 1011.8R
COVE POINT       0300   39     180/  9/ 10 1011.7R
LEWISETTA        0300   42 39  170/  4/  5 1011.4R
SOLOMONS ISLAND  0300      39                N/A
PINEY POINT      0300          160/  6/  7   N/A

$$




USA.gov is the U.S. government's official web portal to all federal, state and local government web resources and services.